Flag for U.S.A. Weather past 2 weeks in Pierre, South Dakota, U.S.A.

Now
76 °F

Sunny.


Feels Like: 78 °F
Forecast: 51 / 81 °F
Wind: 8 mph from West

Location: Pierre Regional Airport

Current Time: Sep 2, 2014 at 1:34:17 PM

Latest Report: Sep 2, 2014 at 12:53 PM


Visibility: 10 mi

Pressure: 29.85 "Hg

Humidity: 40%

Dew point: 50 °F

Location of PierreLocation

Historic Weather in Pierre — Graph

°F

Pierre temperature yesterday

Maximum temperature yesterday: 78 °F (at 4:53 PM)
Minimum temperature yesterday: 53 °F (at 6:53 AM)
Average temperature yesterday: 64 °F

Past Weeks' High & Low Weather Summary

 TemperatureHumidityPressure
High90 °F (Aug 19, 3:53 PM)100% (Aug 21, 4:53 AM)30.20 "Hg (Aug 21, 4:53 AM)
Low47 °F (Aug 26, 4:53 AM)33% (Aug 19, 4:53 PM)29.58 "Hg (Aug 31, 1:53 AM)
Average68 °F77%29.84 "Hg
* Reported Aug 18 11:53 AM — Sep 2 11:53 AM, Pierre, Weather by CustomWeather, © 2014

Note: Actual official high and low records may vary slightly from our data, if they occured in-between our weather recording intervals... More about our weather records

Advertising

Pierre weather history for previous 24 hours

 ConditionsComfort  
Time TempWeatherWind HumidityBarometerVisibility
11:53 AM
Sep 2
73 °FSunny.13 mph48%29.88 "Hg10 mi
10:53 AM68 °FSunny.9 mph57%29.88 "Hg10 mi
9:53 AM63 °FSunny.12 mph65%29.89 "Hg10 mi
8:53 AM58 °FSunny.15 mph78%29.90 "Hg10 mi
7:53 AM54 °FClear.13 mph90%29.90 "Hg10 mi
6:53 AM53 °FClear.9 mph93%29.89 "Hg10 mi
5:53 AM53 °FClear.12 mph93%29.90 "Hg10 mi
4:53 AM54 °FClear.12 mph90%29.88 "Hg10 mi
3:53 AM54 °FClear.14 mph93%29.89 "Hg10 mi
2:53 AM54 °FClear.8 mph93%29.89 "Hg10 mi
1:53 AM56 °FClear.8 mph87%29.90 "Hg10 mi
12:53 AM57 °FClear.5 mph83%29.90 "Hg10 mi
11:53 PM
Sep 1
55 °FClear.7 mph87%29.89 "Hg10 mi
10:53 PM59 °FPassing clouds.5 mph78%29.88 "Hg10 mi
9:53 PM60 °FOvercast.No wind78%29.88 "Hg10 mi
8:53 PM62 °FMostly cloudy.5 mph70%29.88 "Hg10 mi
7:53 PM64 °FOvercast.5 mph68%29.85 "Hg10 mi
6:53 PM69 °FPartly sunny.17 mph51%29.83 "Hg10 mi
5:53 PM69 °FThundershowers. Broken clouds.16 mph49%29.80 "Hg10 mi
4:53 PM78 °FPassing clouds.13 mph36%29.77 "Hg10 mi
3:53 PM76 °FMostly cloudy.12 mph39%29.76 "Hg10 mi
2:53 PM75 °FBroken clouds.9 mph47%29.78 "Hg10 mi
1:53 PM76 °FPartly sunny.7 mph48%29.79 "Hg10 mi
Weather by CustomWeather, © 2014

See weather overviewHow to use our weather pages